GSAT0218 (GALILEO 22) (43058 NORAD) Tracking and Keplerian Element Data

This shows tracking and keplerian element data for the satellite.

Feedback or suggestion? Click here.




ElementValue
Catalog43058
NameGSAT0218 (GALILEO 22)
Epoch Orbit788
Epoch Day77.90689926
Epoch Year2019
RAAN294.2998
Inclination56.6307
Eccentricity0.0002396
Argument of Perigee269.7083
Mean Anonmoly90.315
Mean Motion1.7047376
Decay Rate1E-07
L11 43058U 17079D 19077.90689926 .00000010 00000-0 00000-0 0 9998
L22 43058 56.6307 294.2998 0002396 269.7083 90.3150 1.70473760 7883

Live tracking and technical data element details for GSAT0218 (GALILEO 22) (NORAD 43058). GSAT0218 (GALILEO 22) can be tracked NOW for your location showing map with azimuth and elevation plus other details from your city location.

Track the satellite on the map from your city or location and see movement details for azimuth, elevation, latitude, longitude, range, height, and movement on the map or in text.







IsCatalogInMostPopularTable: catalog: 43058, numindb: 234
Update: records affected: 1



GetName: 43058 GSAT0218 (GALILEO 22)

Hit Count: updated at: Thu, 21 Mar 2019 01:23:40 GMT